EW8865 Weather Reports


time (UTC)temp
C
wind
direction
speed
KPH
gust
KPH
rain 1hr
cm
rain 24hr
cm
rain mn
cm
humidity
%
barometer
mb
20260831045004 13 225 8.0 12.9 0.00 1.27 0.53 94 1006.0
20260831044503 12 247 8.0 12.9 0.00 1.27 0.53 94 1006.0
20260831044004 12 251 4.8 8.0 0.00 1.27 0.53 94 1005.9
20260831043503 12 227 6.4 9.7 0.00 1.27 0.53 94 1005.8
20260831043004 12 231 8.0 9.7 0.00 1.27 0.53 94 1005.8
20260831042503 12 230 8.0 9.7 0.00 1.27 0.53 94 1005.8
20260831042003 12 231 6.4 9.7 0.00 1.27 0.53 94 1005.8
20260831041504 12 225 4.8 8.0 0.00 1.27 0.53 94 1005.8
20260831041003 12 225 4.8 9.7 0.00 1.27 0.53 94 1005.7
20260831040503 12 225 6.4 9.7 0.00 1.27 0.53 93 1005.7
20260831040004 12 222 4.8 8.0 0.00 1.27 0.53 93 1005.6
20260831035503 12 221 4.8 9.7 0.00 1.27 0.53 93 1005.6
20260831035003 12 218 4.8 8.0 0.00 1.27 0.53 93 1005.5
20260831034504 12 223 4.8 9.7 0.00 1.27 0.53 93 1005.6
20260831034004 12 232 8.0 9.7 0.00 1.27 0.53 93 1005.5
20260831033004 12 236 9.7 12.9 0.00 1.27 0.53 93 1005.5
20260831032504 12 233 4.8 9.7 0.00 1.27 0.53 93 1005.5
20260831032003 12 218 4.8 9.7 0.00 1.27 0.53 93 1005.3
20260831031003 12 223 4.8 8.0 0.00 1.27 0.53 93 1005.2
20260831030503 12 224 4.8 9.7 0.00 1.27 0.53 93 1005.2
20260831030004 12 228 4.8 11.3 0.00 1.27 0.53 93 1005.2
20260831024503 12 221 6.4 11.3 0.00 1.27 0.53 93 1005.0
20260831023504 12 226 8.0 9.7 0.00 1.27 0.53 93 1005.0
20260831023003 12 221 3.2 8.0 0.00 1.27 0.53 93 1004.9
20260831022504 12 212 4.8 8.0 0.00 1.27 0.53 93 1004.7
20260831022003 12 220 6.4 8.0 0.00 1.27 0.53 93 1004.7
20260831021504 12 236 6.4 8.0 0.00 1.27 0.53 93 1004.7
20260831021003 12 236 4.8 9.7 0.00 1.27 0.53 93 1004.6
20260831020503 12 231 4.8 8.0 0.00 1.27 0.53 93 1004.6
20260831020004 12 228 3.2 8.0 0.00 1.27 0.53 93 1004.5
20260831015504 12 226 4.8 9.7 0.00 1.27 0.53 93 1004.5
20260831015003 12 231 4.8 8.0 0.00 1.27 0.53 93 1004.4
20260831014503 12 221 6.4 9.7 0.00 1.27 0.53 93 1004.3
20260831014003 12 224 6.4 9.7 0.00 1.27 0.53 93 1004.2
20260831013503 12 235 4.8 8.0 0.00 1.27 0.53 92 1004.2
20260831013004 12 243 6.4 9.7 0.00 1.27 0.53 93 1004.2
20260831012503 12 243 6.4 11.3 0.00 1.27 0.53 92 1004.2
20260831011004 12 266 4.8 9.7 0.00 1.27 0.53 92 1004.2
20260831010504 12 275 4.8 9.7 0.00 1.27 0.53 92 1004.2
20260831010004 12 259 3.2 4.8 0.03 1.27 0.53 92 1004.1
20260831005504 12 261 4.8 9.7 0.05 1.27 0.53 92 1004.1
20260831004503 12 273 3.2 4.8 0.05 1.27 0.53 91 1003.9
20260831004004 12 272 3.2 4.8 0.05 1.27 0.53 92 1003.8
20260831003503 13 272 3.2 4.8 0.05 1.27 0.53 92 1003.8
20260831003004 13 271 3.2 4.8 0.08 1.27 0.53 92 1003.7
20260831002503 13 271 3.2 4.8 0.15 1.27 0.53 92 1003.7
20260831002003 13 279 3.2 9.7 0.15 1.27 0.53 92 1003.7
20260831001503 13 266 4.8 4.8 0.15 1.27 0.53 91 1003.6
20260831001004 13 248 3.2 4.8 0.18 1.27 0.53 91 1003.6
20260831000503 13 246 3.2 8.0 0.28 1.27 0.53 91 1003.5
20260831000004 13 244 3.2 11.3 0.51 1.27 0.51 91 1003.5
20260830235504 13 214 3.2 11.3 0.53 1.24 0.51 91 1003.7
20260830235003 13 188 8.0 12.9 0.53 1.24 0.51 91 1003.7
20260830234503 13 201 8.0 19.3 0.53 1.24 0.51 91 1003.7
20260830234003 13 213 11.3 14.5 0.51 1.22 0.48 91 1003.8
20260830233003 13 199 6.4 16.1 0.51 1.19 0.46 90 1003.6
20260830232503 13 264 6.4 12.9 0.43 1.12 0.38 89 1003.3
20260830232003 13 225 3.2 8.0 0.43 1.12 0.38 89 1003.2
20260830231504 13 210 4.8 11.3 0.43 1.12 0.38 89 1003.2
20260830231004 13 172 4.8 9.7 0.43 1.09 0.36 88 1003.2
20260830230504 13 201 4.8 11.3 0.33 0.99 0.25 87 1003.3
20260830230004 13 203 4.8 16.1 0.05 0.74 0.00 86 1003.6
20260830225504 13 253 6.4 11.3 0.03 0.71 0.71 86 1003.5
20260830225003 14 276 6.4 11.3 0.03 0.71 0.71 86 1003.4
20260830224503 14 290 4.8 16.1 0.03 0.71 0.71 86 1003.2
20260830224004 15 295 12.9 19.3 0.03 0.71 0.71 89 1003.1
20260830223504 15 229 11.3 20.9 0.03 0.71 0.71 89 1002.8
20260830223004 15 215 8.0 19.3 0.03 0.71 0.71 89 1002.8
20260830222504 15 217 8.0 11.3 0.03 0.71 0.71 90 1002.8
20260830222004 15 210 8.0 11.3 0.03 0.71 0.71 89 1002.8
20260830221504 15 217 9.7 19.3 0.03 0.71 0.71 89 1002.8
20260830220504 15 209 8.0 16.1 0.03 0.69 0.69 90 1002.8
20260830220004 15 221 9.7 19.3 0.03 0.69 0.69 90 1002.9
20260830215504 15 223 8.0 19.3 0.03 0.69 0.69 90 1002.9
20260830215003 15 208 8.0 20.9 0.03 0.69 0.69 90 1002.9
20260830214503 15 211 9.7 16.1 0.03 0.69 0.69 90 1002.9
20260830214003 15 200 8.0 12.9 0.05 0.69 0.69 91 1002.9
20260830213503 15 177 8.0 12.9 0.05 0.69 0.69 90 1002.9
20260830213004 15 200 4.8 12.9 0.05 0.69 0.69 91 1002.8
20260830212503 15 150 8.0 16.1 0.05 0.69 0.69 91 1002.8
20260830212004 15 212 4.8 14.5 0.05 0.69 0.69 91 1002.8
20260830211504 15 169 8.0 16.1 0.10 0.69 0.69 91 1002.8
20260830211004 15 184 4.8 12.9 0.10 0.69 0.69 91 1002.8
20260830210503 15 182 9.7 19.3 0.08 0.66 0.66 91 1002.8
20260830210004 15 184 8.0 12.9 0.08 0.66 0.66 91 1002.8
20260830205504 15 167 4.8 11.3 0.08 0.66 0.66 91 1002.8
20260830204004 15 202 4.8 8.0 0.05 0.64 0.64 91 1002.9
20260830203503 15 165 3.2 11.3 0.05 0.64 0.64 91 1003.0
20260830203004 15 165 6.4 14.5 0.05 0.64 0.64 91 1003.2
20260830201503 15 151 0.0 8.0 0.00 0.58 0.58 90 1003.5
20260830201003 15 136 0.0 4.8 0.00 0.58 0.58 90 1003.5
20260830200004 15 217 0.0 3.2 0.00 0.58 0.58 90 1003.5
20260830195503 15 217 1.6 4.8 0.00 0.58 0.58 90 1003.5
20260830195004 15 216 0.0 4.8 0.00 0.58 0.58 89 1003.5
20260830194503 15 215 0.0 0.0 0.00 0.58 0.58 89 1003.5
20260830194004 15 215 0.0 0.0 0.00 0.58 0.58 89 1003.5
20260830193004 15 217 0.0 3.2 0.00 0.58 0.58 89 1003.5
20260830192503 15 218 0.0 4.8 0.00 0.58 0.58 89 1003.3
20260830192003 15 218 4.8 9.7 0.00 0.58 0.58 89 1003.2
20260830191504 15 236 3.2 11.3 0.00 0.58 0.58 89 1003.1
20260830191004 15 218 4.8 11.3 0.00 0.58 0.58 89 1003.1
20260830190003 15 206 9.7 16.1 0.03 0.61 0.58 90 1003.2
20260830185503 15 225 8.0 16.1 0.05 0.61 0.58 90 1003.3
20260830185004 15 219 4.8 16.1 0.08 0.61 0.58 90 1003.2
20260830184503 15 202 9.7 19.3 0.13 0.61 0.58 90 1003.2
20260830184004 15 200 9.7 19.3 0.15 0.61 0.58 90 1003.1
20260830183503 15 223 9.7 19.3 0.23 0.61 0.58 90 1003.2
20260830183004 15 202 11.3 19.3 0.41 0.61 0.58 89 1003.2
20260830182503 15 172 9.7 24.1 0.43 0.61 0.58 89 1003.2
20260830182003 15 204 9.7 19.3 0.43 0.61 0.58 89 1003.3
20260830181503 16 192 9.7 19.3 0.43 0.61 0.58 89 1003.3
20260830181004 16 210 9.7 19.3 0.43 0.61 0.58 89 1003.4
20260830180504 16 184 8.0 16.1 0.46 0.61 0.58 89 1003.5
20260830175003 16 178 11.3 27.4 0.38 0.51 0.51 88 1003.6
20260830174504 16 152 16.1 32.2 0.33 0.48 0.46 88 1003.7
20260830174003 17 148 9.7 24.1 0.30 0.43 0.43 87 1003.8
20260830173504 17 172 14.5 24.1 0.23 0.36 0.33 86 1003.8
20260830173003 17 178 9.7 20.9 0.05 0.20 0.18 85 1003.8
20260830172504 17 189 8.0 19.3 0.03 0.15 0.15 85 1003.9
20260830171503 17 183 9.7 14.5 0.03 0.15 0.15 83 1003.8
20260830171003 17 186 11.3 32.2 0.03 0.15 0.15 82 1003.8
20260830165504 17 178 8.0 19.3 0.00 0.15 0.13 81 1004.1
20260830165004 17 208 8.0 20.9 0.00 0.15 0.13 80 1004.2
20260830164004 18 223 9.7 16.1 0.00 0.15 0.13 78 1004.1
20260830163503 18 209 9.7 19.3 0.00 0.15 0.13 78 1004.3
20260830163004 18 191 14.5 25.7 0.00 0.15 0.13 77 1004.2
20260830162504 18 213 14.5 24.1 0.00 0.15 0.13 77 1004.2
20260830162003 18 190 11.3 29.0 0.00 0.15 0.13 77 1004.2
20260830161004 18 198 11.3 20.9 0.00 0.15 0.13 79 1004.3
20260830160503 18 211 11.3 20.9 0.00 0.15 0.13 79 1004.3
20260830155504 17 218 11.3 19.3 0.00 0.15 0.13 82 1004.5
20260830155004 17 201 6.4 19.3 0.00 0.15 0.13 83 1004.4
20260830154004 17 222 4.8 9.7 0.00 0.15 0.13 84 1004.5
20260830153004 17 203 6.4 9.7 0.00 0.15 0.13 85 1004.6
20260830152503 17 206 8.0 16.1 0.00 0.15 0.13 85 1004.7
20260830152003 17 251 8.0 12.9 0.00 0.15 0.13 85 1004.8
20260830151504 17 255 9.7 14.5 0.00 0.15 0.13 85 1004.7
20260830151003 17 255 11.3 16.1 0.00 0.15 0.13 84 1004.8
20260830150504 17 242 11.3 19.3 0.00 0.15 0.13 84 1004.9
20260830150004 17 282 12.9 20.9 0.00 0.15 0.13 83 1004.9
20260830145503 17 264 11.3 19.3 0.00 0.15 0.13 82 1005.1
20260830144503 18 255 9.7 20.9 0.00 0.15 0.13 80 1005.0
20260830144004 18 215 12.9 27.4 0.00 0.15 0.13 78 1005.0
20260830143503 18 207 16.1 27.4 0.10 0.15 0.13 79 1005.1
20260830143004 18 204 11.3 22.5 0.10 0.15 0.13 79 1005.0
20260830142504 18 195 11.3 32.2 0.10 0.15 0.13 79 1005.1
20260830142003 18 206 14.5 24.1 0.10 0.15 0.13 79 1005.1
20260830141503 18 196 14.5 29.0 0.10 0.15 0.13 79 1005.0
20260830141003 18 183 9.7 27.4 0.10 0.15 0.13 80 1004.9
20260830140504 19 167 6.4 11.3 0.10 0.15 0.13 82 1004.9
20260830140003 19 200 3.2 9.7 0.10 0.15 0.13 82 1005.0
20260830135504 19 193 1.6 4.8 0.10 0.15 0.13 82 1005.1
20260830134003 20 192 8.0 22.5 0.10 0.15 0.13 74 1005.3
20260830133504 20 177 11.3 25.7 0.00 0.05 0.03 69 1005.4
20260830133004 21 185 11.3 22.5 0.00 0.05 0.03 67 1005.3
20260830132503 21 166 11.3 33.8 0.00 0.05 0.03 67 1005.4
20260830132003 21 188 9.7 19.3 0.00 0.05 0.03 67 1005.5
20260830131503 21 223 8.0 14.5 0.00 0.05 0.03 67 1005.4
20260830131003 21 175 9.7 19.3 0.00 0.05 0.03 67 1005.4
20260830130504 21 169 6.4 16.1 0.00 0.05 0.03 69 1005.5
20260830130003 21 216 9.7 14.5 0.00 0.05 0.03 68 1005.5
20260830125503 21 189 11.3 20.9 0.00 0.05 0.03 68 1005.7
20260830125003 21 151 11.3 25.7 0.00 0.05 0.03 70 1005.8
20260830124503 21 147 11.3 25.7 0.00 0.05 0.03 70 1005.9
20260830124004 20 198 9.7 25.7 0.00 0.05 0.03 70 1006.0
20260830123503 20 202 9.7 20.9 0.00 0.05 0.03 70 1006.0
20260830123004 20 120 8.0 22.5 0.00 0.05 0.03 72 1006.1
20260830122503 20 143 12.9 20.9 0.00 0.05 0.03 72 1006.0
20260830121503 20 185 8.0 19.3 0.00 0.05 0.03 74 1006.1
20260830121004 20 181 12.9 20.9 0.00 0.05 0.03 74 1006.2
20260830120503 20 135 11.3 19.3 0.00 0.05 0.03 74 1006.2
20260830120003 20 156 9.7 19.3 0.00 0.05 0.03 76 1006.2
20260830115503 20 156 11.3 27.4 0.00 0.05 0.03 76 1006.3
20260830114503 19 176 9.7 20.9 0.00 0.05 0.03 76 1006.4
20260830114004 19 197 4.8 19.3 0.00 0.05 0.03 76 1006.4
20260830113503 19 176 12.9 19.3 0.00 0.05 0.03 75 1006.4
20260830113003 19 169 6.4 19.3 0.00 0.08 0.03 75 1006.5
20260830112504 19 189 9.7 24.1 0.00 0.08 0.03 75 1006.6
20260830111003 19 226 6.4 19.3 0.00 0.18 0.03 73 1006.6
20260830110503 20 240 11.3 19.3 0.00 0.23 0.03 73 1006.7
20260830110005 20 210 12.9 19.3 0.00 0.25 0.03 72 1006.7
20260830105003 20 168 9.7 19.3 0.00 0.28 0.03 71 1006.8
20260830104504 20 200 11.3 22.5 0.00 0.28 0.03 72 1006.8
20260830104003 20 168 14.5 27.4 0.00 0.28 0.03 70 1006.9
20260830103503 20 178 9.7 25.7 0.00 0.28 0.03 71 1007.0
20260830103004 20 172 11.3 33.8 0.00 0.28 0.03 71 1007.0
20260830102003 20 204 11.3 25.7 0.00 0.28 0.03 74 1007.2
20260830101503 19 144 9.7 24.1 0.00 0.28 0.03 76 1007.2
20260830101003 19 226 8.0 14.5 0.00 0.28 0.03 77 1007.3
20260830100004 18 204 9.7 22.5 0.00 0.28 0.03 76 1007.3
20260830095503 18 193 12.9 19.3 0.00 0.28 0.03 77 1007.5
20260830095003 18 199 11.3 20.9 0.00 0.28 0.03 77 1007.5
20260830094004 18 186 11.3 19.3 0.00 0.28 0.03 77 1007.5
20260830093504 18 189 9.7 20.9 0.00 0.28 0.03 78 1007.4
20260830093003 18 227 11.3 20.9 0.00 0.28 0.03 78 1007.5
20260830092503 18 213 6.4 16.1 0.00 0.28 0.03 78 1007.5
20260830092004 18 224 14.5 22.5 0.00 0.28 0.03 77 1007.5
20260830091504 18 210 14.5 24.1 0.00 0.28 0.03 77 1007.5
20260830091003 18 224 14.5 22.5 0.00 0.28 0.03 77 1007.5
20260830090504 18 196 12.9 19.3 0.00 0.28 0.03 77 1007.5
20260830090004 19 217 9.7 19.3 0.00 0.30 0.03 79 1007.5
20260830085504 19 233 4.8 19.3 0.00 0.30 0.03 80 1007.6
20260830085004 18 218 8.0 19.3 0.00 0.30 0.03 82 1007.6
20260830084504 18 226 8.0 19.3 0.00 0.30 0.03 83 1007.7
20260830084003 18 201 6.4 16.1 0.00 0.30 0.03 83 1007.7
20260830083503 18 188 4.8 9.7 0.00 0.30 0.03 83 1007.7
20260830083003 18 192 8.0 19.3 0.00 0.30 0.03 82 1007.7
20260830082503 18 167 6.4 12.9 0.00 0.30 0.03 83 1007.7
20260830081504 18 200 11.3 19.3 0.00 0.30 0.03 82 1007.6
20260830081004 18 209 8.0 12.9 0.00 0.30 0.03 83 1007.6
20260830075503 18 186 8.0 14.5 0.00 0.36 0.03 86 1007.6
20260830075004 17 160 4.8 11.3 0.00 0.41 0.03 88 1007.5
20260830074003 16 176 4.8 12.9 0.00 0.48 0.03 90 1007.5
20260830073504 16 176 1.6 11.3 0.00 0.56 0.03 89 1007.6
20260830073004 16 184 4.8 19.3 0.00 0.61 0.03 90 1007.6
20260830072504 16 198 4.8 12.9 0.00 0.71 0.03 90 1007.6
20260830072004 16 181 3.2 19.3 0.00 0.76 0.03 90 1007.6
20260830071504 16 168 6.4 12.9 0.00 0.86 0.03 91 1007.6
20260830071004 16 169 4.8 12.9 0.00 0.89 0.03 91 1007.7
20260830070004 16 169 8.0 11.3 0.00 0.99 0.03 93 1007.7
20260830064503 15 176 4.8 11.3 0.00 1.14 0.03 93 1007.6
20260830064004 15 182 0.0 1.6 0.00 1.19 0.03 93 1007.6
20260830063503 15 188 0.0 4.8 0.00 1.24 0.03 93 1007.6
20260830063006 15 162 3.2 8.0 0.00 1.27 0.03 94 1007.6
20260830062503 15 96 0.0 0.0 0.00 1.32 0.03 94 1007.5
20260830062004 15 5 0.0 0.0 0.00 1.35 0.03 94 1007.5
20260830061504 14 9 0.0 0.0 0.00 1.35 0.03 93 1007.5
20260830061005 14 9 0.0 1.6 0.00 1.37 0.03 93 1007.4
20260830060504 14 8 0.0 1.6 0.00 1.37 0.03 93 1007.4
20260830060003 14 328 0.0 3.2 0.00 1.37 0.03 92 1007.4
20260830055503 14 278 0.0 0.0 0.00 1.37 0.03 92 1007.4
20260830055003 14 278 0.0 0.0 0.00 1.40 0.03 92 1007.4
20260830054503 14 278 0.0 0.0 0.00 1.40 0.03 92 1007.4
20260830054004 14 278 0.0 0.0 0.00 1.42 0.03 92 1007.4
20260830053504 14 278 0.0 1.6 0.00 1.42 0.03 92 1007.4
20260830052003 15 227 0.0 0.0 0.00 1.45 0.03 92 1007.4
20260830051503 15 227 0.0 0.0 0.00 1.45 0.03 92 1007.4
20260830050504 15 227 0.0 0.0 0.00 1.45 0.03 92 1007.4
20260830050003 15 227 0.0 3.2 0.00 1.45 0.03 92 1007.4